Weather History for Dublin, Ireland

Change the Weather History Date:

Saturday, February 15, 2014

  Actual Average Record
Temperature  
Mean Temperature 40 °F -  
Max Temperature 46 °F 48 °F 60 °F (1998)
Min Temperature 35 °F 37 °F 23 °F (2003)
Degree Days  
Heating Degree Days 24    
Moisture  
Dew Point 36 °F    
Average Humidity 83    
Maximum Humidity 100    
Minimum Humidity 56    
Precipitation  
Precipitation 0.04 in 0.07 in - ()
Sea Level Pressure  
Sea Level Pressure 29.04 in    
Wind  
Wind Speed 19 mph ()    
Max Wind Speed 28 mph    
Max Gust Speed 37 mph    
Visibility 9.0 miles    
Events Rain    
Averages and records for this station are not official NWS values.
T = Trace of Precipitation, MM = Missing Value Source: Averaged Metar Reports

Daily Weather History Graph

Daily Weather History Graph

Search for Another Location

Airport:

Trip Planner

Search our weather history database for the weather conditions in past years. The results will help you decide how hot, cold, wet, or windy it might be!

Date:

Astronomy

Feb. 15, 2014 Rise Set
Actual Time 7:43 AM GMT 5:35 PM GMT
Civil Twilight 7:07 AM GMT 6:11 PM GMT
Nautical Twilight 6:26 AM GMT 6:52 PM GMT
Astronomical Twilight 5:46 AM GMT 7:33 PM GMT
Moon 6:36 PM GMT (2/15) 7:25 AM GMT (2/15)
Length of Visible Light 11h 04m
Length of Day
9h 51m
Full, 100% of the Moon is Illuminated
Feb 15
Full
Feb 22
Last Quarter
Mar 1
New
Mar 8
First Quarter
Mar 16
Full

Hourly Weather History & Observations

Time (GMT) Temp. Windchill Dew Point Humidity Pressure Visibility Wind Dir Wind Speed Gust Speed Precip Events Conditions
12:00 AM 44 °F - 43 °F 96% 28.39 in 7 mi West 13.4 mph - - Rain Light Drizzle
12:00 AM 44.6 °F 38.1 °F 42.8 °F 93% 28.38 in 6.2 mi West 13.8 mph - N/A   Light Drizzle
12:30 AM 44.6 °F 38.1 °F 42.8 °F 93% 28.38 in 6.2 mi West 13.8 mph - N/A   Light Drizzle
1:00 AM 42 °F - 40 °F 92% 28.43 in 3 mi WSW 20.1 mph - - Rain Drizzle
1:00 AM 41.0 °F 31.9 °F 41.0 °F 100% 28.41 in 2.8 mi WSW 19.6 mph - N/A   Drizzle
1:30 AM 39.2 °F 29.0 °F 39.2 °F 100% 28.44 in 3.7 mi WSW 21.9 mph - N/A   Light Drizzle
2:00 AM 39 °F - 38 °F 95% 28.48 in 5 mi WSW 22.4 mph - - Rain Light Drizzle
2:00 AM 39.2 °F 29.0 °F 37.4 °F 93% 28.47 in 5.0 mi WSW 21.9 mph - N/A   Light Drizzle
2:30 AM 39.2 °F 29.0 °F 37.4 °F 93% 28.50 in 5.0 mi WSW 21.9 mph - N/A Rain Light Rain
3:00 AM 39 °F - 37 °F 89% 28.54 in 7 mi West 24.6 mph - - Rain Light Rain
3:00 AM 39.2 °F 28.5 °F 37.4 °F 93% 28.50 in 6.2 mi West 24.2 mph - N/A Rain Light Rain
3:30 AM 37.4 °F 25.4 °F 35.6 °F 93% 28.53 in 6.2 mi West 27.6 mph - N/A Rain Light Rain
4:00 AM 38 °F - 37 °F 93% 28.59 in 11 mi West 26.8 mph - - Rain Light Rain
4:00 AM 39.2 °F 28.3 °F 37.4 °F 93% 28.56 in 6.2 mi West 25.3 mph 36.8 mph N/A Rain Light Rain
4:30 AM 39.2 °F 27.8 °F 37.4 °F 93% 28.59 in 6.2 mi West 27.6 mph - N/A Rain Light Rain
5:00 AM 39 °F - 38 °F 92% 28.66 in 11 mi West 24.6 mph - - Rain Light Rain
5:00 AM 39.2 °F 28.3 °F 37.4 °F 93% 28.65 in 6.2 mi West 25.3 mph - N/A Rain Light Rain
5:30 AM 39.2 °F 27.8 °F 37.4 °F 93% 28.65 in 6.2 mi West 27.6 mph - N/A Rain Light Rain
6:00 AM 40 °F - 38 °F 88% 28.72 in 11 mi West 26.8 mph - - Rain Light Rain
6:00 AM 39.2 °F 28.0 °F 37.4 °F 93% 28.71 in 6.2 mi West 26.5 mph - N/A Rain Light Rain
6:30 AM 39.2 °F 28.3 °F 37.4 °F 93% 28.74 in 6.2 mi West 25.3 mph - N/A   Mostly Cloudy
7:00 AM 39 °F - 37 °F 91% 28.78 in 12 mi West 26.8 mph - - Rain Light Rain
7:00 AM 39.2 °F 28.3 °F 37.4 °F 93% 28.77 in 6.2 mi West 25.3 mph - N/A   Mostly Cloudy
7:30 AM 39.2 °F 28.3 °F 37.4 °F 93% 28.80 in 6.2 mi West 25.3 mph - N/A   Light Drizzle
8:00 AM 39 °F - 37 °F 88% 28.86 in 12 mi West 24.6 mph - - Rain Light Rain
8:00 AM 39.2 °F 28.3 °F 37.4 °F 93% 28.82 in 6.2 mi West 25.3 mph - N/A Rain Light Rain
8:30 AM 39.2 °F 28.3 °F 37.4 °F 93% 28.88 in 6.2 mi West 25.3 mph - N/A Rain Light Rain
9:00 AM 40 °F - 38 °F 88% 28.92 in 9 mi West 22.4 mph - - Rain Light Rain
9:00 AM 39.2 °F 28.7 °F 37.4 °F 93% 28.91 in 6.2 mi West 23.0 mph 35.7 mph N/A Rain Light Rain
9:30 AM 41.0 °F 30.7 °F 37.4 °F 87% 28.94 in 6.2 mi West 25.3 mph - N/A   Mostly Cloudy
10:00 AM 41 °F - 38 °F 85% 28.99 in 16 mi West 24.6 mph - - Rain Light Rain Showers
10:00 AM 41.0 °F 30.9 °F 37.4 °F 87% 28.97 in 6.2 mi West 24.2 mph - N/A   Mostly Cloudy
10:30 AM 41.0 °F 31.4 °F 37.4 °F 87% 29.00 in 6.2 mi West 21.9 mph - N/A   Mostly Cloudy
11:00 AM 43 °F - 39 °F 79% 29.07 in 16 mi West 24.6 mph - - Rain Light Rain Showers
11:00 AM 42.8 °F 33.1 °F 37.4 °F 81% 29.06 in 6.2 mi West 25.3 mph - N/A   Mostly Cloudy
11:30 AM 42.8 °F 33.1 °F 37.4 °F 81% 29.09 in 6.2 mi WNW 25.3 mph - N/A   Mostly Cloudy
12:00 PM 45 °F - 38 °F 67% 29.13 in 19 mi WNW 24.6 mph - -   Partly Cloudy
12:00 PM 44.6 °F 35.5 °F 37.4 °F 76% 29.12 in 6.2 mi WNW 25.3 mph - N/A   Mostly Cloudy
12:30 PM 46.4 °F 38.1 °F 39.2 °F 76% 29.15 in 6.2 mi WNW 24.2 mph - N/A   Scattered Clouds
1:00 PM 46 °F - 37 °F 61% 29.18 in 19 mi WNW 24.6 mph - -   Scattered Clouds
1:00 PM 46.4 °F 38.1 °F 37.4 °F 71% 29.18 in 6.2 mi WNW 24.2 mph 35.7 mph N/A   Scattered Clouds
1:30 PM 46.4 °F 38.3 °F 37.4 °F 71% 29.18 in 6.2 mi WNW 23.0 mph 35.7 mph N/A   Scattered Clouds
2:00 PM 44 °F - 37 °F 68% 29.23 in 19 mi WNW 17.9 mph - - Rain Light Rain Showers
2:00 PM 42.8 °F 35.1 °F 37.4 °F 81% 29.21 in 6.2 mi WNW 16.1 mph - N/A   Scattered Clouds
2:30 PM 46.4 °F 38.3 °F 35.6 °F 66% 29.24 in 6.2 mi WNW 23.0 mph - N/A   Scattered Clouds
3:00 PM 45 °F - 34 °F 56% 29.28 in 19 mi West 24.6 mph - -   Partly Cloudy
3:00 PM 46.4 °F 38.1 °F 35.6 °F 66% 29.27 in 6.2 mi West 24.2 mph - N/A   Scattered Clouds
3:30 PM 44.6 °F 36.1 °F 35.6 °F 71% 29.30 in 6.2 mi WNW 21.9 mph - N/A   Scattered Clouds
4:00 PM 44 °F - 34 °F 58% 29.34 in 19 mi WNW 20.1 mph - -   Scattered Clouds
4:00 PM 44.6 °F 36.1 °F 33.8 °F 66% 29.33 in 6.2 mi WNW 21.9 mph - N/A   Scattered Clouds
4:30 PM 44.6 °F 36.6 °F 35.6 °F 71% 29.36 in 6.2 mi WNW 19.6 mph - N/A Rain Light Rain Showers
5:00 PM 42 °F - 34 °F 65% 29.38 in 19 mi West 13.4 mph - - Rain Light Rain Showers
5:00 PM 41.0 °F 33.9 °F 33.8 °F 76% 29.36 in 6.2 mi West 12.7 mph - N/A   Partly Cloudy
5:30 PM 41.0 °F 33.1 °F 33.8 °F 76% 29.39 in 6.2 mi West 15.0 mph - N/A   Partly Cloudy
6:00 PM 40 °F - 34 °F 72% 29.43 in 19 mi West 15.7 mph - -   Partly Cloudy
6:00 PM 41.0 °F 32.8 °F 33.8 °F 76% 29.42 in 6.2 mi West 16.1 mph - N/A   Partly Cloudy
6:30 PM 41.0 °F 33.1 °F 33.8 °F 76% 29.42 in 6.2 mi West 15.0 mph - N/A   Partly Cloudy
7:00 PM 39 °F - 34 °F 77% 29.47 in 19 mi West 13.4 mph - -   Scattered Clouds
7:00 PM 39.2 °F 30.8 °F 33.8 °F 81% 29.44 in 6.2 mi West 15.0 mph - N/A   Partly Cloudy
7:30 PM 39.2 °F 31.2 °F 33.8 °F 81% 29.47 in 6.2 mi West 13.8 mph - N/A   Partly Cloudy
8:00 PM 39 °F - 34 °F 75% 29.50 in 19 mi West 17.9 mph - -   Scattered Clouds
8:00 PM 39.2 °F 29.8 °F 33.8 °F 81% 29.47 in 6.2 mi West 18.4 mph - N/A   Partly Cloudy
8:30 PM 39.2 °F 29.3 °F 33.8 °F 81% 29.47 in 6.2 mi West 20.7 mph - N/A   Partly Cloudy
9:00 PM 38 °F - 33 °F 77% 29.53 in 19 mi West 17.9 mph - -   Scattered Clouds
9:00 PM 39.2 °F 30.2 °F 33.8 °F 81% 29.50 in 6.2 mi West 17.3 mph - N/A   Partly Cloudy
9:30 PM 37.4 °F 27.8 °F 33.8 °F 87% 29.50 in 6.2 mi West 17.3 mph - N/A   Partly Cloudy
10:00 PM 37 °F - 33 °F 81% 29.55 in 19 mi WSW 15.7 mph - -  
10:00 PM 37.4 °F 28.2 °F 33.8 °F 87% 29.53 in - WSW 16.1 mph - N/A   Clear
10:30 PM 37.4 °F 27.5 °F 33.8 °F 87% 29.53 in - WSW 18.4 mph - N/A   Clear
11:00 PM 36 °F - 33 °F 85% 29.57 in 19 mi WSW 15.7 mph - -  
11:00 PM 35.6 °F 25.9 °F 33.8 °F 93% 29.53 in - WSW 16.1 mph - N/A   Clear
11:30 PM 35.6 °F 26.6 °F 32.0 °F 87% 29.56 in - WSW 13.8 mph - N/A   Clear